Location: Prague
(50.0830°N, 14.4670°E)
Time: 10:54:11
(UTC+01:00)

AO-7 - Pass Details

Date: 10 December 2021
Orbit: 1440 x 1459 km, 101.9° (Epoch: 29 January)

Event Time Altitude Azimuth Distance (km) Brightness Sun altitude
Rises 17:21:58 0° 223° (SW) 4,524 ? -12.4°
Reaches altitude 10° 17:26:36 10° 247° (WSW) 3,551 ? -13.1°
Maximum altitude 17:30:39 14° 277° (W) 3,228 ? -13.7°
Drops below altitude 10° 17:34:44 10° 307° (NW) 3,562 ? -14.3°
Sets 17:39:27 0° 331° (NNW) 4,547 ? -15.0°
